CW8209 Weather Reports


time (UTC)temp
F
wind
direction
speed
knots
gust
knots
rain 1hr
in
rain 24hr
in
rain mn
in
humidity
%
barometer
mb
20260510201825 49 263 2.6 5.2 0.00 0.00 0.00 55 1017.4
20260510201333 49 178 1.7 7.0 0.00 0.00 0.00 52 1017.5
20260510200831 48 313 3.5 8.7 0.00 0.00 0.00 55 1017.4
20260510200336 49 338 4.3 8.7 0.00 0.00 0.00 55 1017.5
20260510195835 49 360 2.6 7.8 0.00 0.00 0.00 56 1017.5
20260510195338 49 326 4.3 8.7 0.00 0.00 0.00 56 1017.5
20260510194835 50 346 7.0 8.7 0.00 0.00 0.00 54 1017.4
20260510194358 50 304 5.2 7.8 0.00 0.00 0.00 55 1017.4
20260510193835 50 360 3.5 7.8 0.00 0.08 0.00 54 1017.4
20260510193359 50 340 3.5 8.7 0.00 0.08 0.00 52 1017.4
20260510192832 50 348 4.3 8.7 0.00 0.08 0.00 54 1017.4
20260510192335 49 322 3.5 7.0 0.00 0.08 0.00 55 1017.6
20260510191835 49 351 2.6 7.0 0.00 0.08 0.00 52 1017.5
20260510191338 49 322 3.5 7.8 0.00 0.08 0.00 53 1017.5
20260510190857 49 266 4.3 8.7 0.00 0.08 0.00 52 1017.5
20260510190339 49 296 2.6 9.6 0.00 0.08 0.00 51 1017.5
20260510185838 49 9 4.3 9.6 0.00 0.08 0.00 56 1017.5
20260510185346 48 325 5.2 9.6 0.00 0.08 0.00 55 1017.5
20260510184824 48 28 7.0 11.3 0.00 0.08 0.00 52 1017.4
20260510184328 48 19 3.5 11.3 0.00 0.08 0.00 56 1017.5
20260510183829 48 360 4.3 9.6 0.00 0.08 0.00 57 1017.4
20260510183354 48 15 6.1 10.4 0.00 0.08 0.00 55 1017.4
20260510182833 47 14 5.2 10.4 0.00 0.08 0.00 56 1017.4
20260510182337 47 360 6.1 10.4 0.00 0.08 0.00 60 1017.4
20260510181856 47 313 7.0 10.4 0.00 0.08 0.00 56 1017.4
20260510181358 47 308 7.8 11.3 0.00 0.08 0.00 58 1017.4
20260510180837 47 270 7.8 11.3 0.00 0.08 0.00 62 1017.3
20260510180341 46 348 6.1 13.0 0.00 0.08 0.00 60 1017.4
20260510175840 46 338 7.8 13.0 0.00 0.08 0.00 58 1017.4
20260510175344 46 317 8.7 13.0 0.00 0.08 0.00 59 1017.4
20260510174841 46 335 8.7 13.0 0.00 0.08 0.00 58 1017.3
20260510174325 46 306 9.6 13.0 0.00 0.08 0.00 57 1017.3
20260510173828 46 301 9.6 14.8 0.00 0.08 0.00 59 1017.3
20260510173333 46 360 10.4 14.8 0.00 0.08 0.00 56 1017.3
20260510172834 46 343 8.7 13.9 0.00 0.08 0.00 63 1017.3
20260510172339 46 340 8.7 13.9 0.00 0.08 0.00 66 1017.3
20260510171859 46 299 8.7 13.0 0.00 0.08 0.00 66 1017.3
20260510171341 46 315 8.7 13.9 0.00 0.08 0.00 63 1017.3
20260510170841 46 360 9.6 14.8 0.00 0.08 0.00 65 1017.2
20260510170403 46 289 9.6 14.8 0.00 0.08 0.00 66 1017.2
20260510165842 45 317 8.7 15.6 0.00 0.08 0.00 66 1017.1
20260510165325 46 292 9.6 13.9 0.00 0.08 0.00 68 1017.1
20260510164825 45 9 7.8 15.6 0.00 0.08 0.00 66 1017.0
20260510164330 45 289 10.4 15.6 0.00 0.08 0.00 67 1017.0
20260510163830 46 360 8.7 14.8 0.00 0.08 0.00 69 1016.9
20260510163334 45 302 8.7 14.8 0.00 0.08 0.00 67 1016.8
20260510162837 45 342 7.8 13.9 0.00 0.08 0.00 66 1016.8
20260510162342 45 325 9.6 13.9 0.00 0.08 0.00 67 1016.8
20260510161842 45 325 8.7 13.9 0.00 0.08 0.00 70 1016.8
20260510161345 45 320 9.6 13.9 0.00 0.08 0.00 70 1016.7
20260510160824 45 296 9.6 13.9 0.00 0.08 0.00 72 1016.7
20260510160328 45 350 9.6 14.8 0.00 0.08 0.00 67 1016.6
20260510155837 45 294 9.6 15.6 0.00 0.08 0.00 70 1016.6
20260510155341 45 296 8.7 15.6 0.00 0.08 0.00 71 1016.6
20260510154838 45 312 9.6 15.6 0.00 0.08 0.00 71 1016.5
20260510154342 45 9 9.6 14.8 0.00 0.08 0.00 75 1016.5
20260510153840 45 350 9.6 14.8 0.00 0.09 0.00 73 1016.5
20260510153324 45 302 9.6 15.6 0.00 0.09 0.00 74 1016.4
20260510152841 45 294 8.7 15.6 0.00 0.09 0.00 75 1016.4
20260510152328 45 345 10.4 14.8 0.00 0.09 0.00 73 1016.3
20260510151849 45 302 8.7 15.6 0.00 0.09 0.00 74 1016.2
20260510151331 44 319 9.6 16.5 0.00 0.09 0.00 73 1016.1
20260510150831 44 341 11.3 16.5 0.00 0.09 0.00 73 1015.9
20260510150356 44 302 11.3 18.2 0.00 0.09 0.00 73 1015.8
20260510145835 44 337 9.6 13.9 0.00 0.09 0.00 74 1015.7
20260510145340 44 313 10.4 13.9 0.00 0.09 0.00 73 1015.6
20260510144839 44 320 9.6 13.9 0.00 0.09 0.00 73 1015.6
20260510144343 44 325 10.4 13.0 0.00 0.09 0.00 74 1015.5
20260510143842 44 329 8.7 13.0 0.00 0.11 0.00 74 1015.4
20260510143326 44 321 9.6 13.9 0.00 0.11 0.00 75 1015.4
20260510142826 44 304 9.6 13.9 0.00 0.11 0.00 75 1015.3
20260510142331 44 281 7.8 13.0 0.00 0.11 0.00 77 1015.3
20260510141831 44 315 9.6 13.9 0.00 0.11 0.00 76 1015.1
20260510141339 43 293 10.4 17.4 0.00 0.11 0.00 75 1015.1
20260510140838 43 288 10.4 17.4 0.00 0.11 0.00 75 1015.1
20260510140343 43 288 9.6 14.8 0.00 0.11 0.00 75 1015.1
20260510135843 43 298 8.7 14.8 0.00 0.11 0.00 76 1015.0
20260510135326 43 315 10.4 14.8 0.00 0.11 0.00 76 1014.9
20260510134826 43 360 10.4 16.5 0.00 0.11 0.00 76 1014.8
20260510134330 43 313 9.6 15.6 0.00 0.11 0.00 76 1014.9
20260510133850 43 315 10.4 15.6 0.00 0.11 0.00 75 1014.8
20260510133333 43 336 10.4 15.6 0.00 0.11 0.00 75 1014.7
20260510132853 43 299 10.4 15.6 0.00 0.11 0.00 74 1014.7
20260510132336 43 319 11.3 15.6 0.00 0.11 0.00 73 1014.6
20260510131835 43 325 9.6 13.9 0.00 0.11 0.00 73 1014.5
20260510131340 43 302 9.6 13.9 0.00 0.11 0.00 74 1014.3
20260510130838 43 303 9.6 13.9 0.00 0.11 0.00 73 1014.2
20260510130347 43 311 8.7 11.3 0.00 0.11 0.00 73 1014.2
20260510125825 43 299 8.7 12.2 0.00 0.11 0.00 73 1014.1
20260510125329 43 325 8.7 12.2 0.00 0.11 0.00 72 1014.0
20260510124848 43 284 7.8 13.0 0.00 0.11 0.00 73 1014.0
20260510124331 43 306 8.7 13.0 0.00 0.11 0.00 73 1013.9
20260510123832 42 305 9.6 13.0 0.00 0.11 0.00 72 1013.9
20260510123356 42 321 8.7 13.0 0.00 0.11 0.00 73 1013.8
20260510122835 42 360 7.8 12.2 0.00 0.11 0.00 73 1013.7
20260510122339 42 273 8.7 12.2 0.00 0.11 0.00 73 1013.8
20260510121838 42 312 8.7 11.3 0.00 0.11 0.00 74 1013.6
20260510121342 42 311 8.7 13.9 0.00 0.11 0.00 75 1013.5
20260510120901 42 301 9.6 13.9 0.00 0.11 0.00 74 1013.5
20260510120343 41 303 9.6 13.9 0.00 0.11 0.00 74 1013.5
20260510115840 41 315 9.6 13.9 0.00 0.11 0.00 74 1013.3
20260510115342 41 305 8.7 13.0 0.00 0.11 0.00 74 1013.2
20260510114836 41 318 9.6 14.8 0.00 0.11 0.00 74 1013.2
20260510114340 41 360 8.7 14.8 0.00 0.11 0.00 74 1013.2
20260510113841 40 35 8.7 14.8 0.00 0.11 0.00 75 1013.1
20260510113403 40 360 9.6 13.0 0.00 0.11 0.00 74 1012.9
20260510112839 40 360 8.7 13.9 0.00 0.11 0.00 76 1012.9
20260510112341 40 360 9.6 13.9 0.00 0.11 0.00 76 1012.8
20260510111827 40 360 8.7 13.9 0.00 0.11 0.00 75 1012.8
20260510111349 39 360 9.6 13.9 0.00 0.11 0.00 75 1012.7
20260510110839 39 360 7.8 12.2 0.00 0.11 0.00 75 1012.5
20260510110400 39 360 9.6 13.0 0.00 0.11 0.00 75 1012.5
20260510105858 39 360 9.6 13.9 0.00 0.11 0.00 75 1012.4
20260510105341 39 360 9.6 13.9 0.00 0.11 0.00 75 1012.3
20260510104840 39 360 8.7 13.9 0.00 0.11 0.00 75 1012.2
20260510104343 39 360 9.6 18.2 0.00 0.11 0.00 75 1012.2
20260510103841 39 360 10.4 18.2 0.00 0.11 0.00 75 1012.1
20260510103325 38 360 9.6 13.0 0.00 0.11 0.00 75 1012.0
20260510102845 38 360 9.6 13.0 0.00 0.11 0.00 75 1011.9
20260510102329 38 360 9.6 13.9 0.00 0.11 0.00 75 1011.8
20260510101830 38 360 7.8 13.9 0.00 0.11 0.00 76 1011.7
20260510101334 38 360 7.8 13.9 0.00 0.11 0.00 76 1011.7
20260510100834 38 360 8.7 13.0 0.00 0.11 0.00 76 1011.6
20260510100324 38 360 8.7 13.0 0.00 0.11 0.00 78 1011.6
20260510095843 38 360 7.0 13.0 0.00 0.11 0.00 78 1011.4
20260510095326 38 155 7.0 10.4 0.00 0.11 0.00 79 1011.4
20260510094825 38 148 8.7 14.8 0.00 0.11 0.00 79 1011.2
20260510094330 38 178 8.7 14.8 0.00 0.11 0.00 79 1011.2
20260510093830 38 191 7.8 9.6 0.00 0.11 0.00 79 1011.1
20260510093334 38 161 7.8 11.3 0.00 0.11 0.00 78 1011.0
20260510092835 38 161 8.7 12.2 0.00 0.11 0.00 77 1011.0
20260510092339 38 161 7.8 11.3 0.00 0.11 0.00 77 1011.0
20260510091838 38 360 7.0 11.3 0.00 0.11 0.00 77 1010.9
20260510091401 38 360 7.8 13.0 0.00 0.11 0.00 77 1010.8
20260510090839 38 360 8.7 13.0 0.00 0.11 0.00 78 1010.8
20260510090342 38 157 8.7 13.0 0.00 0.11 0.00 78 1010.7
20260510085825 38 157 7.8 13.9 0.00 0.11 0.00 79 1010.6
20260510085349 38 360 7.8 13.9 0.00 0.11 0.00 80 1010.6
20260510084827 38 186 7.0 11.3 0.00 0.11 0.00 82 1010.5
20260510084331 38 360 8.7 11.3 0.00 0.11 0.00 82 1010.5
20260510083831 38 170 6.1 10.4 0.00 0.11 0.00 82 1010.5
20260510083354 38 360 7.8 12.2 0.00 0.11 0.00 81 1010.4
20260510082829 38 360 7.0 13.0 0.00 0.11 0.00 81 1010.4
20260510082335 38 360 8.7 13.9 0.00 0.11 0.00 80 1010.3
20260510081832 39 360 9.6 13.9 0.00 0.11 0.00 80 1010.2
20260510081356 38 360 9.6 12.2 0.00 0.11 0.00 81 1010.2
20260510080834 38 360 7.8 12.2 0.00 0.11 0.00 80 1010.1
20260510080337 39 360 8.7 14.8 0.00 0.11 0.00 80 1010.1
20260510075834 39 360 9.6 14.8 0.00 0.11 0.00 80 1010.1
20260510075337 39 360 8.7 12.2 0.00 0.11 0.00 80 1010.1
20260510074854 38 360 7.0 11.3 0.00 0.11 0.00 81 1010.0
20260510074337 38 360 7.0 10.4 0.00 0.11 0.00 81 1010.0
20260510073836 38 360 5.2 13.0 0.00 0.11 0.00 81 1010.0
20260510073400 38 360 7.0 13.9 0.00 0.11 0.00 81 1009.9
20260510072842 38 360 9.6 14.8 0.00 0.11 0.00 82 1009.8
20260510072325 37 360 9.6 14.8 0.00 0.11 0.00 83 1009.8
20260510071903 37 360 7.0 9.6 0.00 0.11 0.00 84 1009.7
20260510071326 37 169 7.0 10.4 0.00 0.11 0.00 84 1009.7
20260510070845 37 177 6.1 10.4 0.00 0.11 0.00 84 1009.7
20260510070327 37 360 6.1 9.6 0.00 0.11 0.00 84 1009.7
20260510065846 37 360 5.2 8.7 0.00 0.11 0.00 85 1009.6
20260510065348 37 360 4.3 7.0 0.00 0.11 0.00 85 1009.6
20260510064842 37 155 3.5 7.0 0.00 0.11 0.00 84 1009.6
20260510064327 37 143 3.5 6.1 0.00 0.11 0.00 84 1009.4
20260510063846 37 159 4.3 6.1 0.00 0.11 0.00 84 1009.2
20260510063348 37 360 3.5 5.2 0.00 0.11 0.00 84 1009.3
20260510062826 37 360 2.6 5.2 0.00 0.11 0.00 84 1009.3
20260510062349 37 360 3.5 7.8 0.00 0.11 0.00 83 1009.3
20260510061847 37 360 5.2 7.8 0.00 0.11 0.00 84 1009.3
20260510061349 37 360 3.5 7.8 0.00 0.11 0.00 84 1009.3
20260510060827 37 360 3.5 7.0 0.00 0.11 0.00 84 1009.2
20260510060331 38 360 3.5 8.7 0.00 0.11 0.00 84 1009.2
20260510055832 37 360 4.3 8.7 0.00 0.11 0.00 85 1009.3
20260510055355 37 360 3.5 5.2 0.00 0.11 0.00 85 1009.3
20260510054855 38 360 2.6 5.2 0.00 0.11 0.00 85 1009.2
20260510054339 38 360 3.5 7.0 0.00 0.11 0.00 84 1009.4
20260510053839 38 360 4.3 10.4 0.00 0.11 0.00 84 1009.3
20260510053328 38 13 4.3 10.4 0.00 0.11 0.00 84 1009.3
20260510052827 38 360 5.2 10.4 0.00 0.11 0.00 83 1009.3
20260510052332 39 360 7.0 11.3 0.00 0.11 0.00 83 1009.2
20260510051832 39 360 7.8 11.3 0.00 0.11 0.00 82 1009.1
20260510051337 39 360 6.1 10.4 0.00 0.11 0.00 82 1009.0
20260510050837 39 360 6.1 11.3 0.00 0.11 0.00 81 1008.9
20260510050341 39 360 7.8 11.3 0.00 0.11 0.00 81 1008.9
20260510045840 39 360 8.7 10.4 0.00 0.11 0.00 81 1008.8
20260510045325 40 360 7.0 13.9 0.00 0.11 0.00 80 1008.7
20260510044842 40 360 7.8 12.2 0.00 0.11 0.00 80 1008.6
20260510044327 40 360 7.8 12.2 0.00 0.11 0.00 80 1008.6
20260510043832 40 360 7.8 12.2 0.00 0.11 0.11 80 1008.5
20260510043357 40 360 8.7 13.0 0.00 0.11 0.11 80 1008.5
20260510042836 40 360 7.8 13.0 0.00 0.11 0.11 79 1008.5
20260510042341 40 15 8.7 11.3 0.00 0.11 0.11 79 1008.3
20260510041900 40 360 7.8 11.3 0.00 0.11 0.11 78 1008.2
20260510041343 41 360 8.7 17.4 0.00 0.11 0.11 78 1008.2
20260510040902 41 189 10.4 15.6 0.00 0.11 0.11 77 1008.1
20260510040327 41 360 9.6 15.6 0.00 0.11 0.11 77 1007.9
20260510035828 40 360 7.8 15.6 0.00 0.11 0.11 77 1007.9
20260510035332 41 360 7.8 15.6 0.00 0.11 0.11 77 1007.8
20260510034851 41 360 8.7 15.6 0.00 0.11 0.11 75 1007.6
20260510034335 41 360 10.4 15.6 0.00 0.11 0.11 75 1007.6
20260510033835 41 360 11.3 19.1 0.00 0.11 0.11 75 1007.5
20260510033337 41 360 10.4 17.4 0.00 0.11 0.11 76 1007.5
20260510032836 41 360 11.3 17.4 0.00 0.11 0.11 77 1007.5
20260510032400 40 360 9.6 14.8 0.00 0.11 0.11 78 1007.5
20260510031838 40 360 8.7 18.2 0.00 0.11 0.11 79 1007.4
20260510031326 40 360 9.6 18.2 0.00 0.11 0.11 80 1007.3
20260510030825 40 360 7.0 10.4 0.00 0.11 0.11 81 1007.2
20260510030349 40 360 6.1 12.2 0.00 0.11 0.11 81 1007.1
20260510025829 40 360 7.8 12.2 0.00 0.11 0.11 81 1007.1
20260510025333 41 360 6.1 11.3 0.00 0.11 0.11 81 1007.1
20260510024834 41 360 7.0 10.4 0.00 0.11 0.11 81 1007.1
20260510024338 41 360 6.1 11.3 0.00 0.11 0.11 80 1007.0
20260510023840 41 360 5.2 10.4 0.00 0.11 0.11 80 1007.0
20260510023325 41 360 5.2 10.4 0.00 0.11 0.11 80 1006.8
20260510022825 42 360 4.3 10.4 0.00 0.11 0.11 79 1006.8
20260510022328 42 360 6.1 8.7 0.00 0.11 0.11 79 1006.6
20260510021828 42 360 5.2 8.7 0.00 0.11 0.11 77 1006.6
20260510021352 42 360 5.2 9.6 0.00 0.11 0.11 76 1006.5
20260510020828 42 360 7.0 11.3 0.00 0.11 0.11 75 1006.3
20260510020332 43 360 7.8 11.3 0.00 0.11 0.11 74 1006.2
20260510015833 43 360 6.1 12.2 0.00 0.11 0.11 73 1006.2
20260510015337 43 360 5.2 12.2 0.00 0.11 0.11 71 1006.0
20260510014836 43 360 7.0 9.6 0.00 0.11 0.11 71 1005.8
20260510014340 43 360 4.3 10.4 0.00 0.11 0.11 71 1005.9
20260510013839 43 360 5.2 10.4 0.00 0.11 0.11 70 1005.7
20260510013343 43 360 4.3 7.8 0.00 0.11 0.11 71 1005.7
20260510012842 44 360 4.3 9.6 0.00 0.11 0.11 71 1005.4
20260510012326 44 360 6.1 9.6 0.00 0.11 0.11 71 1005.3
20260510011827 44 360 4.3 9.6 0.00 0.11 0.11 71 1005.2
20260510011351 43 360 3.5 7.8 0.00 0.11 0.11 72 1005.2
20260510010829 43 360 1.7 4.3 0.00 0.11 0.11 73 1005.0
20260510010333 44 360 0.9 7.0 0.00 0.11 0.11 73 1004.9
20260510005832 44 360 2.6 7.0 0.00 0.11 0.11 72 1004.8
20260510005357 44 360 3.5 8.7 0.00 0.11 0.11 72 1004.7
20260510004839 45 17 5.2 9.6 0.00 0.11 0.11 72 1004.6
20260510004324 45 15 6.1 9.6 0.00 0.11 0.11 71 1004.4
20260510003843 45 10 7.0 11.3 0.00 0.11 0.11 71 1004.4
20260510003348 46 254 5.2 8.7 0.00 0.11 0.11 73 1004.3
20260510002848 46 10 5.2 8.7 0.00 0.11 0.11 72 1004.4
20260510002331 46 13 5.2 9.6 0.00 0.11 0.11 73 1004.3
20260510001830 46 360 5.2 10.4 0.00 0.11 0.11 74 1004.1
20260510001332 46 360 6.1 10.4 0.00 0.11 0.11 75 1004.1
20260510000829 46 11 4.3 7.0 0.00 0.11 0.11 75 1003.8
20260510000333 46 233 4.3 8.7 0.00 0.11 0.11 76 1003.7
20260509235833 46 246 4.3 8.7 0.00 0.11 0.11 77 1003.6
20260509235337 46 238 3.5 7.0 0.00 0.11 0.11 76 1003.6
20260509234837 46 261 4.3 7.8 0.00 0.11 0.11 76 1003.5
20260509234324 47 244 4.3 8.7 0.00 0.11 0.11 75 1003.4
20260509233859 47 262 5.2 8.7 0.00 0.11 0.11 75 1003.3
20260509233325 47 254 4.3 8.7 0.00 0.11 0.11 75 1003.1
20260509232842 47 243 5.2 9.6 0.00 0.11 0.11 75 1003.1
20260509232326 48 12 6.1 9.6 0.00 0.11 0.11 75 1003.0
20260509231825 48 5 7.0 10.4 0.00 0.11 0.11 74 1002.9
20260509231328 48 19 6.1 12.2 0.00 0.11 0.11 74 1002.8
20260509230848 49 14 8.7 12.2 0.00 0.11 0.11 72 1002.8
20260509230351 50 249 7.8 12.2 0.00 0.11 0.11 73 1002.7
20260509225849 49 234 7.8 12.2 0.00 0.11 0.11 74 1002.6
20260509225331 48 250 7.0 12.2 0.00 0.11 0.11 78 1002.5
20260509224831 48 9 7.0 13.0 0.00 0.11 0.11 77 1002.4
20260509224334 48 223 8.7 15.6 0.00 0.11 0.11 76 1002.3
20260509223833 49 248 10.4 16.5 0.00 0.11 0.11 74 1002.2
20260509223337 49 247 11.3 16.5 0.00 0.11 0.11 74 1002.1
20260509222855 50 242 10.4 15.6 0.00 0.11 0.11 73 1001.9
20260509222337 51 225 10.4 14.8 0.00 0.11 0.11 71 1001.6
20260509221837 52 198 8.7 14.8 0.00 0.11 0.11 72 1001.5
20260509221325 52 217 9.6 17.4 0.00 0.11 0.11 72 1001.3
20260509220823 53 204 11.3 17.4 0.00 0.11 0.11 70 1001.2
20260509220328 53 218 7.8 14.8 0.00 0.11 0.11 71 1001.0
20260509215827 54 207 10.4 16.5 0.00 0.11 0.11 71 1001.0
20260509215330 53 360 10.4 16.5 0.00 0.11 0.11 71 1000.9
20260509214828 54 207 8.7 16.5 0.00 0.11 0.11 73 1000.8
20260509214332 54 360 7.8 13.9 0.00 0.11 0.11 74 1000.8
20260509213851 55 221 8.7 17.4 0.00 0.11 0.11 72 1000.7
20260509213354 55 221 8.7 15.6 0.00 0.11 0.11 72 1000.6
20260509212832 55 360 8.7 17.4 0.00 0.11 0.11 74 1000.6
20260509212354 55 218 10.4 17.4 0.00 0.11 0.11 72 1000.5
20260509211830 55 360 8.7 20.0 0.00 0.11 0.11 73 1000.5
20260509211334 55 219 7.0 20.0 0.00 0.11 0.11 75 1000.4
20260509210834 55 225 6.1 16.5 0.00 0.11 0.11 76 1000.3
20260509210338 54 360 7.0 14.8 0.00 0.11 0.11 76 1000.3
20260509205837 54 360 7.8 13.0 0.00 0.11 0.11 76 1000.3
20260509205323 54 360 7.0 15.6 0.00 0.11 0.11 78 1000.2
20260509204858 54 220 7.8 15.6 0.00 0.11 0.11 77 1000.0
20260509204325 54 212 7.0 15.6 0.00 0.11 0.11 78 1000.1
20260509203904 54 206 6.1 13.9 0.00 0.11 0.11 79 1000.0
20260509203346 54 360 6.1 13.9 0.00 0.11 0.11 78 999.9
20260509202843 55 220 7.0 13.0 0.00 0.11 0.11 77 999.9
20260509202327 55 209 7.0 16.5 0.00 0.11 0.11 78 999.8